GW2489 Weather Reports


Display with metric or nautical units.
time (UTC)temp
F
wind
direction
speed
MPH
gust
MPH
rain 1hr
in
rain 24hr
in
rain mn
in
humidity
%
barometer
mb
20260505080533 44 341 0.0 6.0 0.00 0.12 0.00 86 1012.2
20260505080041 45 0 1.0 6.0 0.00 0.12 0.00 86 1012.2
20260505075538 46 0 0.0 5.0 0.00 0.12 0.00 87 1011.9
20260505075036 46 327 0.0 5.0 0.00 0.12 0.00 87 1012.0
20260505074540 46 0 0.0 1.0 0.00 0.12 0.00 87 1012.1
20260505074036 46 252 0.0 0.0 0.00 0.12 0.00 87 1012.1
20260505073537 46 0 0.0 0.0 0.00 0.12 0.00 87 1012.1
20260505073049 46 0 0.0 0.0 0.00 0.12 0.00 87 1012.1
20260505072539 46 0 0.0 0.0 0.00 0.12 0.00 87 1011.9
20260505072038 46 0 0.0 0.0 0.00 0.12 0.00 88 1011.8
20260505071542 46 0 0.0 0.0 0.00 0.12 0.00 88 1011.8
20260505071038 46 0 0.0 1.0 0.00 0.12 0.00 88 1012.0
20260505070538 46 0 0.0 2.0 0.00 0.12 0.00 88 1011.9
20260505070050 46 0 0.0 2.0 0.00 0.12 0.00 88 1011.8
20260505065538 46 0 0.0 0.0 0.00 0.12 0.00 88 1011.8
20260505065036 46 0 0.0 2.0 0.00 0.12 0.00 88 1011.7
20260505064603 45 0 0.0 2.0 0.00 0.12 0.00 88 1011.9
20260505064037 45 0 0.0 2.0 0.00 0.12 0.00 88 1011.9
20260505063535 46 0 0.0 0.0 0.00 0.12 0.00 88 1011.9
20260505063048 46 0 0.0 0.0 0.00 0.12 0.00 88 1011.9
20260505062537 46 0 0.0 1.0 0.00 0.12 0.00 88 1011.9
20260505062038 46 0 0.0 1.0 0.00 0.12 0.00 88 1011.8
20260505061539 45 0 0.0 0.0 0.00 0.12 0.00 89 1011.9
20260505061041 45 0 0.0 0.0 0.00 0.12 0.00 89 1011.8
20260505060537 45 0 0.0 1.0 0.00 0.12 0.00 89 1011.9
20260505060038 45 0 0.0 1.0 0.00 0.12 0.00 89 1011.7
20260505055540 45 0 0.0 1.0 0.00 0.12 0.12 89 1011.8
20260505055038 45 0 0.0 0.0 0.00 0.12 0.12 88 1011.9
20260505054550 45 0 0.0 0.0 0.00 0.12 0.12 88 1012.0
20260505054037 44 0 0.0 0.0 0.00 0.12 0.12 88 1012.0
20260505053538 44 0 0.0 0.0 0.00 0.12 0.12 88 1011.5
20260505053043 44 0 0.0 0.0 0.00 0.12 0.12 87 1011.5
20260505052541 44 0 0.0 0.0 0.00 0.12 0.12 88 1011.5
20260505052037 44 0 0.0 0.0 0.00 0.12 0.12 87 1011.5
20260505051549 44 0 0.0 0.0 0.00 0.12 0.12 87 1011.5
20260505051036 44 0 0.0 0.0 0.00 0.12 0.12 87 1011.6
20260505050536 44 0 0.0 0.0 0.01 0.12 0.12 87 1011.7
20260505041542 46 0 0.0 0.0 0.05 0.12 0.12 86 1012.1
20260505041038 46 0 0.0 0.0 0.05 0.12 0.12 86 1012.2
20260505040541 46 0 0.0 0.0 0.05 0.11 0.11 86 1012.3
20260505040059 46 0 0.0 0.0 0.06 0.11 0.11 86 1012.1
20260505035537 46 0 0.0 0.0 0.08 0.11 0.11 86 1012.1
20260505035036 46 0 0.0 0.0 0.10 0.11 0.11 85 1011.9
20260505034605 46 0 0.0 1.0 0.11 0.11 0.11 84 1012.1
20260505034037 47 0 0.0 1.0 0.10 0.10 0.10 84 1012.0
20260505033538 47 0 0.0 1.0 0.09 0.09 0.09 83 1012.1
20260505033045 47 0 0.0 2.0 0.09 0.09 0.09 82 1012.2
20260505032538 48 0 0.0 3.0 0.08 0.08 0.08 82 1012.1
20260505032037 48 0 0.0 3.0 0.08 0.08 0.08 82 1012.1
20260505031545 48 0 0.0 3.0 0.07 0.07 0.07 82 1012.0
20260505031038 48 0 0.0 11.0 0.07 0.07 0.07 81 1011.8
20260505030541 48 0 2.0 11.0 0.06 0.06 0.06 80 1012.0
20260505030047 48 312 1.0 11.0 0.05 0.05 0.05 83 1011.7
20260505025538 48 0 2.0 11.0 0.03 0.03 0.03 82 1011.6
20260505025038 49 0 0.0 5.0 0.01 0.01 0.01 81 1011.3
20260505024559 49 0 0.0 5.0 0.00 0.00 0.00 79 1011.3
20260505024037 49 340 0.0 5.0 0.00 0.00 0.00 77 1011.1
20260505023539 50 337 1.0 5.0 0.00 0.00 0.00 75 1011.1
20260505023048 50 348 0.0 3.0 0.00 0.00 0.00 73 1010.9
20260505022537 50 344 0.0 4.0 0.00 0.00 0.00 73 1010.8
20260505022037 50 319 0.0 4.0 0.00 0.00 0.00 73 1010.8
20260505021545 50 360 0.0 4.0 0.00 0.00 0.00 72 1010.7
20260505021037 50 343 0.0 4.0 0.00 0.00 0.00 73 1010.8
20260505020538 50 352 0.0 4.0 0.00 0.00 0.00 72 1010.7
20260505020103 50 0 0.0 3.0 0.00 0.00 0.00 72 1010.7
20260505015537 50 0 0.0 6.0 0.00 0.00 0.00 71 1010.9
20260505015037 51 360 1.0 8.0 0.00 0.00 0.00 69 1010.9
20260505014544 51 0 1.0 11.0 0.00 0.00 0.00 67 1010.9
20260505014037 52 360 1.0 11.0 0.00 0.00 0.00 65 1010.7
20260505013537 54 352 1.0 6.0 0.00 0.00 0.00 60 1010.4
20260505013043 55 0 0.0 1.0 0.00 0.00 0.00 53 1010.4
20260505012540 56 0 0.0 2.0 0.00 0.00 0.00 53 1010.6
20260505012038 56 0 0.0 3.0 0.00 0.00 0.00 53 1010.6
20260505011540 56 0 0.0 4.0 0.00 0.00 0.00 54 1010.6
20260505011033 56 0 0.0 4.0 0.00 0.00 0.00 52 1010.6
20260505010535 57 0 0.0 3.0 0.00 0.00 0.00 50 1010.6
20260505010057 57 0 0.0 3.0 0.00 0.00 0.00 49 1010.4
20260505005536 57 0 0.0 3.0 0.00 0.00 0.00 48 1010.3
20260505005034 57 0 0.0 1.0 0.00 0.00 0.00 48 1010.1
20260505004601 57 0 0.0 1.0 0.00 0.00 0.00 47 1010.2
20260505004036 58 0 0.0 1.0 0.00 0.00 0.00 47 1010.2
20260505003537 58 0 0.0 1.0 0.00 0.00 0.00 46 1010.2
20260505003052 58 0 0.0 1.0 0.00 0.00 0.00 46 1010.2
20260505002533 58 0 0.0 1.0 0.00 0.00 0.00 45 1009.8
20260505002037 58 0 0.0 1.0 0.00 0.00 0.00 45 1010.0
20260505001545 58 0 0.0 1.0 0.00 0.00 0.00 44 1009.7
20260505001037 58 0 0.0 3.0 0.00 0.00 0.00 44 1009.7
20260505000535 58 0 0.0 3.0 0.00 0.00 0.00 44 1009.7
20260505000044 58 329 0.0 2.0 0.00 0.00 0.00 44 1009.6
20260504235535 58 313 0.0 4.0 0.00 0.00 0.00 44 1009.5
20260504235034 58 0 0.0 4.0 0.00 0.00 0.00 45 1009.5
20260504234541 58 0 1.0 6.0 0.00 0.00 0.00 45 1009.6
20260504234035 58 22 0.0 6.0 0.00 0.00 0.00 46 1009.4
20260504233533 59 0 0.0 3.0 0.00 0.00 0.00 45 1009.4
20260504233039 59 0 0.0 3.0 0.00 0.00 0.00 41 1009.3
20260504232536 59 20 0.0 3.0 0.00 0.00 0.00 43 1009.4
20260504232035 59 0 0.0 4.0 0.00 0.00 0.00 43 1009.4
20260504231618 59 0 1.0 6.0 0.00 0.00 0.00 44 1009.5
20260504231034 59 360 0.0 10.0 0.00 0.00 0.00 45 1009.5
20260504230534 58 0 0.0 10.0 0.00 0.00 0.00 45 1009.4
20260504230045 59 0 0.0 3.0 0.00 0.00 0.00 45 1009.3
20260504225534 59 342 0.0 5.0 0.00 0.00 0.00 43 1009.4
20260504225035 58 0 0.0 5.0 0.00 0.00 0.00 43 1009.5
20260504224544 58 0 0.0 5.0 0.00 0.00 0.00 49 1009.7
20260504224037 58 0 0.0 6.0 0.00 0.00 0.00 49 1009.8
20260504223534 58 0 0.0 14.0 0.00 0.00 0.00 47 1009.8
20260504223040 59 0 2.0 14.0 0.00 0.00 0.00 42 1009.8
20260504222533 60 0 0.0 3.0 0.00 0.00 0.00 40 1009.7
20260504222039 59 335 0.0 3.0 0.00 0.00 0.00 40 1009.7
20260504221619 59 0 0.0 7.0 0.00 0.00 0.00 40 1009.5
20260504221037 59 0 0.0 7.0 0.00 0.00 0.00 40 1009.3
20260504220537 60 9 0.0 9.0 0.00 0.00 0.00 40 1009.3
20260504220049 60 36 0.0 9.0 0.00 0.00 0.00 40 1009.0
20260504215541 60 21 2.0 19.0 0.00 0.00 0.00 39 1008.8
20260504215037 61 352 4.0 19.0 0.00 0.00 0.00 38 1008.5
20260504214547 62 24 1.0 15.0 0.00 0.00 0.00 36 1008.5
20260504214037 62 342 3.0 22.0 0.00 0.00 0.00 35 1008.4
20260504213538 63 332 6.0 22.0 0.00 0.00 0.00 34 1008.2
20260504213051 63 14 3.0 18.0 0.00 0.00 0.00 34 1008.2
20260504212538 63 32 2.0 21.0 0.00 0.00 0.00 34 1008.3
20260504212039 63 36 6.0 21.0 0.00 0.00 0.00 32 1008.3
20260504211549 66 0 2.0 18.0 0.00 0.00 0.00 29 1008.5
20260504211037 66 0 0.0 3.0 0.00 0.00 0.00 29 1008.2
20260504210541 65 0 0.0 3.0 0.00 0.00 0.00 28 1008.2
20260504210050 65 0 0.0 3.0 0.00 0.00 0.00 29 1008.2
20260504205538 65 0 0.0 5.0 0.00 0.00 0.00 29 1008.3
20260504205038 64 0 0.0 8.0 0.00 0.00 0.00 33 1008.3
20260504204549 64 0 1.0 8.0 0.00 0.00 0.00 33 1008.4
20260504204040 64 150 1.0 6.0 0.00 0.00 0.00 35 1008.4
20260504203537 63 178 1.0 7.0 0.00 0.00 0.00 35 1008.5
20260504203050 63 173 1.0 9.0 0.00 0.00 0.00 35 1008.5
20260504202538 63 186 2.0 12.0 0.00 0.00 0.00 37 1008.7
20260504202035 63 185 2.0 12.0 0.00 0.00 0.00 37 1008.8
20260504201547 63 214 1.0 18.0 0.00 0.00 0.00 38 1008.9
20260504201040 62 0 1.0 18.0 0.00 0.00 0.00 34 1008.9
20260504200536 61 0 1.0 13.0 0.00 0.00 0.00 45 1008.9
20260504200049 59 151 2.0 22.0 0.00 0.00 0.00 47 1008.9
20260504195537 59 126 8.0 25.0 0.00 0.00 0.00 45 1008.9
20260504195037 58 132 12.0 25.0 0.00 0.00 0.00 46 1008.7
20260504194553 57 153 15.0 26.0 0.00 0.00 0.00 54 1008.7
20260504194040 57 174 14.0 26.0 0.00 0.00 0.00 49 1008.7
20260504193537 58 167 9.0 29.0 0.00 0.00 0.00 46 1008.8
20260504193049 62 190 15.0 29.0 0.00 0.00 0.00 32 1008.7
20260504192538 64 170 12.0 24.0 0.00 0.00 0.00 28 1008.7
20260504192037 67 196 3.0 14.0 0.00 0.00 0.00 23 1008.8
20260504191610 68 0 0.0 8.0 0.00 0.00 0.00 24 1008.7
20260504191037 68 0 1.0 9.0 0.00 0.00 0.00 22 1008.1
20260504190536 69 303 1.0 9.0 0.00 0.00 0.00 22 1008.0
20260504190047 70 360 1.0 11.0 0.00 0.00 0.00 21 1008.0
20260504185537 70 345 2.0 22.0 0.00 0.00 0.00 21 1007.9
20260504185038 71 340 3.0 22.0 0.00 0.00 0.00 21 1007.8
20260504184555 72 331 3.0 12.0 0.00 0.00 0.00 20 1007.8
20260504184038 72 311 1.0 12.0 0.00 0.00 0.00 18 1007.9
20260504183536 72 331 0.0 11.0 0.00 0.00 0.00 19 1008.0
20260504183049 71 0 0.0 11.0 0.00 0.00 0.00 19 1008.0
20260504182537 71 0 1.0 9.0 0.00 0.00 0.00 20 1008.1
20260504182035 70 334 0.0 10.0 0.00 0.00 0.00 21 1008.1
20260504181544 70 0 1.0 10.0 0.00 0.00 0.00 21 1008.2
20260504181037 70 324 0.0 18.0 0.00 0.00 0.00 23 1008.2
20260504180536 69 312 1.0 18.0 0.00 0.00 0.00 22 1008.3
20260504180045 69 322 3.0 14.0 0.00 0.00 0.00 21 1008.4
20260504175536 69 0 2.0 15.0 0.00 0.00 0.00 23 1008.5
20260504175035 68 292 1.0 15.0 0.00 0.00 0.00 23 1008.4
20260504174552 68 322 2.0 16.0 0.00 0.00 0.00 24 1008.7
20260504174036 68 307 1.0 16.0 0.00 0.00 0.00 26 1008.9
20260504173537 67 321 4.0 19.0 0.00 0.00 0.00 25 1009.0
20260504173044 67 346 2.0 19.0 0.00 0.00 0.00 26 1009.3
20260504172537 67 309 6.0 17.0 0.00 0.00 0.00 25 1009.1
20260504172039 67 323 3.0 18.0 0.00 0.00 0.00 25 1009.3
20260504171552 67 0 2.0 18.0 0.00 0.00 0.00 25 1009.4
20260504171037 67 313 3.0 18.0 0.00 0.00 0.00 26 1009.5
20260504170538 67 309 4.0 14.0 0.00 0.00 0.00 25 1009.4
20260504151038 63 287 2.0 14.0 0.00 0.00 0.00 27 1010.1
20260504150539 63 303 2.0 14.0 0.00 0.00 0.00 27 1010.2
20260504141038 62 263 0.0 5.0 0.00 0.00 0.00 26 1010.0
20260504140538 62 298 0.0 7.0 0.00 0.00 0.00 26 1010.1
20260504130535 54 0 0.0 1.0 0.00 0.00 0.00 29 1009.7
20260504110538 50 0 0.0 0.0 0.00 0.00 0.00 35 1009.9
20260504100539 50 0 0.0 0.0 0.00 0.00 0.00 37 1010.2
20260504081550 53 0 0.0 1.0 0.00 0.00 0.00 33 1010.9
20260504081035 52 0 0.0 2.0 0.00 0.00 0.00 34 1010.9